ASA65 PAJN-PANC

Flight info

Callsign ASA65
Flight time 1h 31m
Altitude 38000
Route CHLKT2 ALATY JOH PTERS3
Aircraft B739/M-SDE2E3FGHIRWXY/LB1

Departure

Time 2026-04-20 20:15
Airport Juneau International Airport (PAJN)

Arrival

Time 2026-04-20 21:46
Airport Ted Stevens Anchorage International Airport (PANC)
Time Latitude Longitude Altitude Speed Heading
2026-04-20 19:43 58.35847 -134.58428 33 ft 0 kts 47°
2026-04-20 20:03 58.35838 -134.58447 33 ft 4 kts 50°
2026-04-20 20:03 58.35822 -134.58487 33 ft 4 kts 54°
2026-04-20 20:04 58.35807 -134.58529 33 ft 4 kts 59°
2026-04-20 20:04 58.35793 -134.58574 33 ft 4 kts 63°
2026-04-20 20:04 58.35782 -134.58621 33 ft 4 kts 69°
2026-04-20 20:04 58.35773 -134.58669 33 ft 4 kts 74°
2026-04-20 20:05 58.35767 -134.58719 33 ft 4 kts 82°
2026-04-20 20:05 58.35766 -134.58770 33 ft 4 kts 98°
2026-04-20 20:05 58.35767 -134.58787 33 ft 0 kts 105°
2026-04-20 20:08 58.35760 -134.58738 33 ft 12 kts 105°
2026-04-20 20:09 58.35736 -134.58558 32 ft 14 kts 105°
2026-04-20 20:09 58.35711 -134.58381 33 ft 14 kts 104°
2026-04-20 20:09 58.35689 -134.58211 33 ft 13 kts 104°
2026-04-20 20:09 58.35667 -134.58047 33 ft 13 kts 104°
2026-04-20 20:10 58.35646 -134.57887 33 ft 12 kts 104°
2026-04-20 20:10 58.35624 -134.57731 33 ft 12 kts 107°
2026-04-20 20:10 58.35600 -134.57580 33 ft 12 kts 107°
2026-04-20 20:10 58.35577 -134.57434 33 ft 11 kts 105°
2026-04-20 20:11 58.35558 -134.57290 33 ft 11 kts 101°
2026-04-20 20:11 58.35543 -134.57149 33 ft 11 kts 101°
2026-04-20 20:11 58.35527 -134.57015 33 ft 10 kts 111°
2026-04-20 20:11 58.35499 -134.56890 33 ft 10 kts 113°
2026-04-20 20:12 58.35482 -134.56766 33 ft 10 kts 99°
2026-04-20 20:12 58.35464 -134.56606 33 ft 21 kts 103°
2026-04-20 20:12 58.35425 -134.56294 33 ft 24 kts 103°
2026-04-20 20:13 58.35346 -134.55704 32 ft 22 kts 104°
2026-04-20 20:13 58.35305 -134.55424 31 ft 22 kts 109°
2026-04-20 20:13 58.35255 -134.55306 31 ft 7 kts 160°
2026-04-20 20:13 58.35208 -134.55289 32 ft 7 kts 180°
2026-04-20 20:14 58.35179 -134.55349 30 ft 7 kts 272°
2026-04-20 20:14 58.35203 -134.55507 30 ft 34 kts 288°
2026-04-20 20:14 58.35336 -134.56384 34 ft 102 kts 283°
2026-04-20 20:14 58.35554 -134.58061 37 ft 155 kts 285°
2026-04-20 20:15 58.35861 -134.60127 521 ft 158 kts 287°
2026-04-20 20:15 58.36170 -134.62210 1024 ft 173 kts 285°
2026-04-20 20:15 58.36458 -134.64555 1431 ft 189 kts 275°
2026-04-20 20:15 58.36356 -134.67122 1804 ft 205 kts 263°
2026-04-20 20:16 58.36244 -134.69974 2028 ft 225 kts 261°
2026-04-20 20:16 58.36133 -134.73016 2339 ft 242 kts 280°
2026-04-20 20:16 58.36763 -134.76068 2835 ft 252 kts 293°
2026-04-20 20:16 58.37438 -134.79129 3699 ft 250 kts 290°
2026-04-20 20:17 58.38079 -134.82264 4394 ft 256 kts 289°
2026-04-20 20:17 58.38696 -134.85421 5186 ft 257 kts 288°
2026-04-20 20:17 58.39305 -134.88634 5974 ft 258 kts 288°
2026-04-20 20:17 58.39905 -134.91863 6746 ft 259 kts 288°
2026-04-20 20:18 58.40503 -134.95124 7462 ft 262 kts 287°
2026-04-20 20:18 58.41105 -134.98421 8179 ft 264 kts 287°
2026-04-20 20:18 58.41705 -135.01735 8904 ft 265 kts 287°
2026-04-20 20:18 58.42305 -135.05074 9615 ft 267 kts 287°
2026-04-20 20:19 58.42903 -135.08408 10386 ft 267 kts 287°
2026-04-20 20:19 58.43601 -135.11826 10647 ft 287 kts 291°
2026-04-20 20:19 58.44597 -135.15308 10813 ft 311 kts 301°
2026-04-20 20:19 58.45906 -135.18748 10988 ft 331 kts 302°
2026-04-20 20:20 58.47217 -135.22478 11228 ft 344 kts 301°
2026-04-20 20:20 58.48553 -135.26327 11737 ft 348 kts 300°
2026-04-20 20:20 58.49871 -135.30197 12392 ft 348 kts 299°
2026-04-20 20:20 58.51164 -135.34131 12995 ft 351 kts 299°
2026-04-20 20:21 58.52486 -135.38065 13652 ft 351 kts 299°
2026-04-20 20:21 58.53812 -135.42025 14323 ft 354 kts 299°
2026-04-20 20:21 58.55146 -135.46012 14915 ft 357 kts 299°
2026-04-20 20:21 58.56488 -135.50032 15522 ft 359 kts 298°
2026-04-20 20:22 58.57378 -135.52709 15962 ft 361 kts 298°
2026-04-20 20:22 58.59162 -135.58104 16776 ft 363 kts 298°
2026-04-20 20:22 58.60515 -135.62224 17326 ft 365 kts 298°
2026-04-20 20:22 58.61888 -135.66397 17982 ft 367 kts 298°
2026-04-20 20:23 58.63238 -135.70503 18544 ft 370 kts 298°
2026-04-20 20:23 58.64611 -135.74691 19041 ft 373 kts 298°
2026-04-20 20:23 58.65997 -135.78927 19582 ft 376 kts 298°
2026-04-20 20:23 58.67393 -135.83198 20052 ft 378 kts 298°
2026-04-20 20:24 58.68816 -135.87485 20532 ft 382 kts 298°
2026-04-20 20:24 58.70238 -135.91801 21129 ft 382 kts 297°
2026-04-20 20:24 58.71640 -135.96166 21629 ft 384 kts 297°
2026-04-20 20:24 58.73052 -136.00566 22061 ft 388 kts 297°
2026-04-20 20:25 58.74478 -136.04997 22468 ft 391 kts 297°
2026-04-20 20:25 58.75918 -136.09464 22885 ft 394 kts 297°
2026-04-20 20:25 58.77371 -136.13966 23311 ft 396 kts 297°
2026-04-20 20:25 58.78829 -136.18494 23743 ft 399 kts 297°
2026-04-20 20:26 58.80299 -136.23069 24105 ft 402 kts 296°
2026-04-20 20:26 58.81768 -136.27671 24552 ft 403 kts 297°
2026-04-20 20:26 58.83246 -136.32294 24934 ft 406 kts 297°
2026-04-20 20:26 58.84732 -136.36942 25290 ft 409 kts 297°
2026-04-20 20:27 58.85724 -136.40039 25532 ft 410 kts 297°
2026-04-20 20:27 58.87220 -136.44742 25884 ft 412 kts 296°
2026-04-20 20:27 58.88740 -136.49470 26191 ft 416 kts 297°
2026-04-20 20:27 58.90250 -136.54255 26545 ft 417 kts 296°
2026-04-20 20:28 58.91761 -136.59050 26938 ft 417 kts 296°
2026-04-20 20:28 58.93270 -136.63840 27406 ft 416 kts 296°
2026-04-20 20:28 58.94775 -136.68622 27899 ft 414 kts 296°
2026-04-20 20:28 58.96266 -136.73365 28340 ft 412 kts 296°
2026-04-20 20:29 58.97773 -136.78115 28648 ft 415 kts 297°
2026-04-20 20:29 58.99301 -136.82873 29082 ft 414 kts 296°
2026-04-20 20:29 59.00786 -136.87641 29563 ft 412 kts 296°
2026-04-20 20:29 59.02255 -136.92400 30043 ft 410 kts 296°
2026-04-20 20:30 59.03719 -136.97149 30444 ft 410 kts 296°
2026-04-20 20:30 59.05185 -137.01908 30775 ft 412 kts 296°
2026-04-20 20:30 59.06661 -137.06694 31060 ft 413 kts 296°
2026-04-20 20:30 59.08140 -137.11485 31408 ft 413 kts 296°
2026-04-20 20:31 59.09620 -137.16286 31708 ft 415 kts 296°
2026-04-20 20:31 59.11108 -137.21121 31962 ft 417 kts 296°
2026-04-20 20:31 59.12596 -137.25966 32244 ft 418 kts 296°
2026-04-20 20:31 59.14068 -137.30762 32609 ft 417 kts 296°
2026-04-20 20:32 59.15553 -137.35616 32930 ft 418 kts 297°
2026-04-20 20:32 59.17100 -137.40449 33110 ft 421 kts 296°
2026-04-20 20:32 59.18597 -137.45360 33393 ft 420 kts 296°
2026-04-20 20:32 59.20076 -137.50267 33709 ft 419 kts 296°
2026-04-20 20:33 59.21549 -137.55185 33963 ft 421 kts 296°
2026-04-20 20:33 59.23032 -137.60133 34210 ft 422 kts 296°
2026-04-20 20:33 59.24518 -137.65090 34478 ft 422 kts 296°
2026-04-20 20:33 59.26004 -137.70041 34720 ft 423 kts 296°
2026-04-20 20:34 59.27488 -137.75022 34859 ft 425 kts 296°
2026-04-20 20:34 59.28959 -137.79960 35053 ft 426 kts 297°
2026-04-20 20:34 59.30464 -137.84942 35375 ft 424 kts 296°
2026-04-20 20:34 59.31959 -137.89912 35653 ft 423 kts 296°
2026-04-20 20:35 59.33451 -137.94911 35788 ft 425 kts 296°
2026-04-20 20:35 59.34937 -137.99900 36031 ft 423 kts 296°
2026-04-20 20:35 59.36424 -138.04885 36135 ft 425 kts 297°
2026-04-20 20:35 59.38004 -138.09816 36255 ft 427 kts 296°
2026-04-20 20:36 59.39403 -138.14951 36402 ft 427 kts 294°
2026-04-20 20:36 59.40817 -138.20088 36580 ft 428 kts 296°
2026-04-20 20:36 59.42285 -138.25174 36801 ft 426 kts 292°
2026-04-20 20:36 59.43380 -138.30530 37102 ft 420 kts 286°
2026-04-20 20:37 59.44270 -138.35979 37411 ft 417 kts 284°
2026-04-20 20:37 59.45098 -138.41430 37670 ft 416 kts 284°
2026-04-20 20:37 59.45918 -138.46891 37807 ft 417 kts 284°
2026-04-20 20:37 59.46749 -138.52361 37918 ft 416 kts 284°
2026-04-20 20:38 59.48443 -138.63273 37995 ft 419 kts 285°
2026-04-20 20:38 59.50178 -138.74259 37985 ft 421 kts 285°
2026-04-20 20:39 59.51920 -138.85257 37988 ft 420 kts 285°
2026-04-20 20:39 59.53652 -138.96238 37986 ft 420 kts 284°
2026-04-20 20:40 59.55359 -139.07174 37989 ft 420 kts 284°
2026-04-20 20:40 59.57070 -139.18191 37988 ft 420 kts 284°
2026-04-20 20:41 59.58767 -139.29198 37986 ft 419 kts 284°
2026-04-20 20:41 59.60453 -139.40192 37992 ft 418 kts 284°
2026-04-20 20:42 59.62127 -139.51173 37992 ft 417 kts 284°
2026-04-20 20:42 59.63786 -139.62135 38002 ft 416 kts 284°
2026-04-20 20:43 59.65432 -139.73088 37997 ft 416 kts 284°
2026-04-20 20:43 59.67071 -139.84064 38005 ft 416 kts 284°
2026-04-20 20:44 59.68706 -139.95080 37998 ft 417 kts 284°
2026-04-20 20:44 59.70335 -140.06139 37994 ft 418 kts 284°
2026-04-20 20:45 59.71961 -140.17212 37994 ft 420 kts 283°
2026-04-20 20:45 59.73571 -140.28286 37987 ft 421 kts 283°
2026-04-20 20:46 59.75184 -140.39464 37983 ft 422 kts 283°
2026-04-20 20:46 59.76789 -140.50652 37968 ft 422 kts 283°
2026-04-20 20:47 59.78385 -140.61848 37968 ft 421 kts 283°
2026-04-20 20:47 59.79965 -140.73023 37964 ft 420 kts 283°
2026-04-20 20:48 59.81535 -140.84207 37945 ft 420 kts 283°
2026-04-20 20:48 59.83096 -140.95388 37956 ft 419 kts 283°
2026-04-20 20:49 59.84644 -141.06553 37952 ft 418 kts 283°
2026-04-20 20:49 59.86170 -141.17639 37944 ft 418 kts 283°
2026-04-20 20:50 59.87692 -141.28783 37958 ft 417 kts 283°
2026-04-20 20:50 59.89204 -141.39934 37956 ft 417 kts 283°
2026-04-20 20:51 59.90708 -141.51103 37948 ft 417 kts 283°
2026-04-20 20:51 59.92203 -141.62281 37947 ft 418 kts 283°
2026-04-20 20:52 59.93694 -141.73507 37944 ft 419 kts 283°
2026-04-20 20:52 59.95179 -141.84777 37935 ft 420 kts 283°
2026-04-20 20:53 59.96656 -141.96076 37935 ft 422 kts 282°
2026-04-20 20:53 59.98129 -142.07420 37934 ft 422 kts 282°
2026-04-20 20:54 59.99598 -142.18811 37949 ft 423 kts 282°
2026-04-20 20:54 60.01045 -142.30137 37941 ft 424 kts 282°
2026-04-20 20:55 60.02498 -142.41551 37939 ft 423 kts 282°
2026-04-20 20:55 60.03937 -142.52977 37948 ft 423 kts 282°
2026-04-20 20:56 60.05366 -142.64417 37946 ft 423 kts 282°
2026-04-20 20:56 60.06784 -142.75855 37948 ft 423 kts 282°
2026-04-20 20:57 60.08191 -142.87300 37951 ft 423 kts 282°
2026-04-20 20:57 60.09590 -142.98748 37949 ft 423 kts 282°
2026-04-20 20:58 60.10976 -143.10212 37952 ft 423 kts 282°
2026-04-20 20:58 60.12354 -143.21691 37946 ft 423 kts 282°
2026-04-20 20:59 60.13715 -143.33114 37952 ft 424 kts 282°
2026-04-20 20:59 60.15076 -143.44610 37953 ft 424 kts 282°
2026-04-20 21:00 60.16428 -143.56134 37956 ft 423 kts 282°
2026-04-20 21:00 60.17766 -143.67639 37953 ft 423 kts 281°
2026-04-20 21:01 60.19092 -143.79147 37957 ft 423 kts 281°
2026-04-20 21:01 60.20408 -143.90656 37957 ft 422 kts 281°
2026-04-20 21:02 60.21713 -144.02158 37946 ft 421 kts 281°
2026-04-20 21:02 60.23007 -144.13651 37947 ft 421 kts 281°
2026-04-20 21:03 60.24290 -144.25159 37966 ft 420 kts 281°
2026-04-20 21:03 60.25560 -144.36655 37965 ft 420 kts 281°
2026-04-20 21:04 60.26820 -144.48154 37958 ft 420 kts 281°
2026-04-20 21:04 60.28071 -144.59670 37976 ft 421 kts 281°
2026-04-20 21:05 60.29313 -144.71196 37956 ft 421 kts 280°
2026-04-20 21:05 60.30546 -144.82736 37952 ft 421 kts 280°
2026-04-20 21:06 60.31769 -144.94294 37965 ft 422 kts 280°
2026-04-20 21:06 60.32983 -145.05875 37967 ft 422 kts 280°
2026-04-20 21:07 60.34179 -145.17386 37957 ft 422 kts 280°
2026-04-20 21:07 60.35374 -145.28989 37954 ft 422 kts 279°
2026-04-20 21:08 60.36558 -145.40592 37966 ft 422 kts 279°
2026-04-20 21:08 60.37733 -145.52217 37957 ft 422 kts 279°
2026-04-20 21:09 60.38892 -145.63836 37963 ft 421 kts 279°
2026-04-20 21:09 60.40047 -145.75459 37951 ft 421 kts 279°
2026-04-20 21:10 60.41190 -145.87092 37956 ft 421 kts 279°
2026-04-20 21:10 60.42323 -145.98713 37970 ft 420 kts 279°
2026-04-20 21:11 60.43442 -146.10322 37978 ft 420 kts 279°
2026-04-20 21:11 60.44549 -146.21927 37975 ft 419 kts 278°
2026-04-20 21:12 60.45647 -146.33539 37981 ft 419 kts 278°
2026-04-20 21:12 60.46737 -146.45157 37962 ft 420 kts 278°
2026-04-20 21:13 60.48040 -146.56629 37955 ft 423 kts 288°
2026-04-20 21:13 60.50719 -146.67297 37949 ft 430 kts 302°
2026-04-20 21:14 60.54332 -146.77022 37946 ft 432 kts 303°
2026-04-20 21:14 60.57377 -146.85179 37945 ft 433 kts 303°
2026-04-20 21:15 60.60959 -146.94944 37942 ft 433 kts 303°
2026-04-20 21:15 60.64557 -147.04839 37940 ft 435 kts 302°
2026-04-20 21:16 60.68103 -147.14830 37940 ft 435 kts 302°
2026-04-20 21:16 60.71630 -147.24899 37955 ft 436 kts 302°
2026-04-20 21:17 60.75155 -147.35004 37951 ft 437 kts 302°
2026-04-20 21:17 60.78680 -147.45125 37937 ft 437 kts 302°
2026-04-20 21:18 60.80447 -147.50217 37598 ft 443 kts 302°
2026-04-20 21:18 60.82237 -147.55380 37109 ft 441 kts 302°
2026-04-20 21:18 60.84002 -147.60475 36383 ft 439 kts 302°
2026-04-20 21:18 60.85772 -147.65601 35550 ft 436 kts 302°
2026-04-20 21:19 60.87511 -147.70645 34715 ft 430 kts 301°
2026-04-20 21:19 60.89226 -147.75631 33908 ft 424 kts 301°
2026-04-20 21:19 60.90913 -147.80549 33066 ft 418 kts 301°
2026-04-20 21:20 60.94228 -147.90255 31416 ft 416 kts 301°
2026-04-20 21:20 60.95892 -147.95147 30551 ft 419 kts 301°
2026-04-20 21:20 60.97568 -148.00081 29618 ft 422 kts 300°
2026-04-20 21:20 60.99252 -148.05049 28675 ft 423 kts 300°
2026-04-20 21:21 61.00938 -148.10031 27720 ft 425 kts 300°
2026-04-20 21:21 61.02595 -148.14931 27080 ft 419 kts 300°
2026-04-20 21:21 61.04251 -148.19837 26362 ft 415 kts 300°
2026-04-20 21:21 61.05888 -148.24701 25685 ft 410 kts 300°
2026-04-20 21:22 61.07499 -148.29499 25007 ft 405 kts 300°
2026-04-20 21:22 61.09094 -148.34258 24332 ft 400 kts 300°
2026-04-20 21:22 61.10664 -148.38957 23717 ft 395 kts 299°
2026-04-20 21:22 61.12211 -148.43616 23034 ft 392 kts 300°
2026-04-20 21:23 61.13693 -148.48284 22774 ft 377 kts 295°
2026-04-20 21:23 61.14797 -148.53068 22812 ft 367 kts 286°
2026-04-20 21:23 61.15663 -148.58120 22835 ft 378 kts 286°
2026-04-20 21:23 61.16554 -148.63292 22774 ft 381 kts 286°
2026-04-20 21:24 61.17447 -148.68404 22311 ft 375 kts 286°
2026-04-20 21:24 61.18332 -148.73485 21560 ft 375 kts 286°
2026-04-20 21:24 61.19222 -148.78593 20705 ft 377 kts 286°
2026-04-20 21:24 61.20114 -148.83704 19922 ft 376 kts 287°
2026-04-20 21:25 61.20998 -148.88789 19254 ft 373 kts 286°
2026-04-20 21:25 61.21871 -148.93817 18637 ft 368 kts 287°
2026-04-20 21:25 61.22734 -148.98795 17953 ft 366 kts 287°
2026-04-20 21:25 61.23638 -149.03712 17287 ft 365 kts 292°
2026-04-20 21:26 61.24938 -149.08289 16582 ft 370 kts 302°
2026-04-20 21:26 61.26544 -149.12429 16056 ft 369 kts 308°
2026-04-20 21:26 61.28378 -149.16190 15411 ft 370 kts 313°
2026-04-20 21:26 61.30283 -149.19769 14760 ft 368 kts 314°
2026-04-20 21:27 61.32190 -149.23303 14115 ft 367 kts 314°
2026-04-20 21:27 61.34078 -149.26859 13524 ft 364 kts 314°
2026-04-20 21:27 61.35943 -149.30419 12896 ft 363 kts 313°
2026-04-20 21:27 61.37805 -149.33959 12326 ft 362 kts 315°
2026-04-20 21:28 61.39769 -149.37220 11900 ft 358 kts 319°
2026-04-20 21:28 61.41681 -149.40447 11504 ft 350 kts 316°
2026-04-20 21:28 61.43421 -149.43817 11124 ft 333 kts 311°
2026-04-20 21:28 61.44934 -149.47295 10780 ft 315 kts 306°
2026-04-20 21:29 61.46245 -149.50840 10453 ft 301 kts 302°
2026-04-20 21:29 61.47402 -149.54385 10137 ft 289 kts 300°
2026-04-20 21:29 61.48443 -149.57874 9948 ft 274 kts 298°
2026-04-20 21:29 61.49653 -149.60877 9577 ft 273 kts 323°
2026-04-20 21:30 61.51370 -149.62472 9354 ft 271 kts 341°
2026-04-20 21:30 61.53208 -149.63525 9139 ft 275 kts 344°
2026-04-20 21:30 61.55032 -149.64517 9094 ft 275 kts 344°
2026-04-20 21:30 61.56905 -149.65533 8921 ft 277 kts 344°
2026-04-20 21:31 61.58751 -149.66534 8881 ft 273 kts 343°
2026-04-20 21:31 61.60437 -149.68210 8693 ft 265 kts 317°
2026-04-20 21:31 61.61493 -149.71200 8632 ft 249 kts 292°
2026-04-20 21:31 61.62141 -149.74503 8558 ft 238 kts 290°
2026-04-20 21:32 61.62739 -149.77647 8438 ft 226 kts 289°
2026-04-20 21:32 61.63315 -149.80687 8190 ft 223 kts 289°
2026-04-20 21:32 61.63880 -149.83694 7994 ft 219 kts 289°
2026-04-20 21:32 61.64436 -149.86670 7672 ft 219 kts 289°
2026-04-20 21:33 61.64992 -149.89662 7331 ft 220 kts 289°
2026-04-20 21:33 61.65548 -149.92665 6926 ft 222 kts 289°
2026-04-20 21:33 61.66104 -149.95733 6392 ft 225 kts 284°
2026-04-20 21:33 61.66160 -149.98982 5840 ft 223 kts 252°
2026-04-20 21:34 61.65442 -150.01834 5348 ft 221 kts 234°
2026-04-20 21:34 61.64564 -150.04512 4825 ft 223 kts 234°
2026-04-20 21:34 61.63639 -150.07147 4293 ft 224 kts 227°
2026-04-20 21:34 61.62560 -150.09517 3778 ft 225 kts 224°
2026-04-20 21:35 61.61420 -150.11781 3251 ft 226 kts 214°
2026-04-20 21:35 61.59993 -150.12866 3047 ft 212 kts 187°
2026-04-20 21:35 61.58571 -150.13134 2977 ft 201 kts 184°
2026-04-20 21:35 61.57201 -150.13354 2925 ft 200 kts 187°
2026-04-20 21:36 61.55861 -150.13713 2853 ft 188 kts 189°
2026-04-20 21:36 61.54632 -150.14145 2866 ft 171 kts 188°
2026-04-20 21:36 61.53477 -150.14468 2886 ft 165 kts 187°
2026-04-20 21:36 61.52358 -150.14785 2909 ft 156 kts 188°
2026-04-20 21:37 61.51341 -150.15069 2873 ft 141 kts 188°
2026-04-20 21:37 61.50373 -150.15333 2873 ft 138 kts 188°
2026-04-20 21:37 61.49414 -150.15641 2883 ft 137 kts 189°
2026-04-20 21:37 61.48444 -150.15929 2890 ft 141 kts 187°
2026-04-20 21:38 61.47492 -150.16193 2882 ft 137 kts 185°
2026-04-20 21:38 61.46588 -150.15758 2873 ft 140 kts 138°
2026-04-20 21:38 61.46310 -150.13859 2910 ft 146 kts 82°
2026-04-20 21:38 61.46388 -150.11760 2858 ft 142 kts 111°
2026-04-20 21:39 61.45762 -150.10268 2876 ft 139 kts 161°
2026-04-20 21:39 61.44863 -150.10421 2889 ft 133 kts 212°
2026-04-20 21:39 61.44198 -150.11757 2910 ft 135 kts 221°
2026-04-20 21:39 61.43488 -150.13142 2892 ft 140 kts 221°
2026-04-20 21:40 61.42656 -150.14021 2872 ft 136 kts 182°
2026-04-20 21:40 61.41761 -150.13428 2906 ft 139 kts 157°
2026-04-20 21:40 61.40838 -150.12952 2877 ft 134 kts 177°
2026-04-20 21:40 61.39895 -150.12633 2894 ft 141 kts 168°
2026-04-20 21:41 61.38950 -150.12104 2877 ft 139 kts 167°
2026-04-20 21:41 61.38019 -150.11577 2871 ft 137 kts 168°
2026-04-20 21:41 61.37089 -150.11050 2888 ft 141 kts 167°
2026-04-20 21:41 61.36133 -150.10509 2878 ft 142 kts 167°
2026-04-20 21:42 61.35191 -150.09980 2865 ft 138 kts 167°
2026-04-20 21:42 61.34267 -150.09465 2872 ft 139 kts 167°
2026-04-20 21:42 61.33342 -150.08945 2877 ft 140 kts 167°
2026-04-20 21:42 61.32401 -150.08415 2819 ft 140 kts 167°
2026-04-20 21:43 61.31455 -150.07888 2630 ft 140 kts 167°
2026-04-20 21:43 61.30526 -150.07368 2433 ft 136 kts 167°
2026-04-20 21:43 61.29622 -150.06862 2251 ft 134 kts 167°
2026-04-20 21:43 61.28721 -150.06359 2068 ft 134 kts 166°
2026-04-20 21:44 61.27822 -150.05853 1875 ft 133 kts 166°
2026-04-20 21:44 61.26936 -150.05355 1688 ft 131 kts 166°
2026-04-20 21:44 61.26054 -150.04863 1500 ft 131 kts 165°
2026-04-20 21:44 61.25178 -150.04372 1315 ft 129 kts 165°
2026-04-20 21:45 61.24320 -150.03891 1133 ft 128 kts 165°
2026-04-20 21:45 61.23457 -150.03408 957 ft 129 kts 165°
2026-04-20 21:45 61.22590 -150.02922 770 ft 129 kts 165°
2026-04-20 21:45 61.21724 -150.02438 587 ft 129 kts 165°
2026-04-20 21:46 61.20862 -150.01953 401 ft 126 kts 165°
2026-04-20 21:46 61.20027 -150.01528 205 ft 123 kts 169°
2026-04-20 21:46 61.19253 -150.01103 145 ft 95 kts 157°
2026-04-20 21:46 61.18829 -150.00813 136 ft 34 kts 165°
2026-04-20 21:47 61.18680 -150.00657 129 ft 12 kts 121°
2026-04-20 21:47 61.18659 -150.00506 128 ft 12 kts 103°
2026-04-20 21:47 61.18619 -150.00354 123 ft 13 kts 147°
2026-04-20 21:47 61.18538 -150.00290 123 ft 12 kts 165°
2026-04-20 21:48 61.18455 -150.00244 120 ft 12 kts 165°
2026-04-20 21:48 61.18373 -150.00199 119 ft 12 kts 165°
2026-04-20 21:48 61.18292 -150.00155 121 ft 12 kts 165°
2026-04-20 21:48 61.18212 -150.00112 120 ft 12 kts 165°
2026-04-20 21:49 61.18133 -150.00071 116 ft 12 kts 166°
2026-04-20 21:49 61.18054 -150.00030 114 ft 11 kts 164°
2026-04-20 21:49 61.17978 -149.99982 114 ft 12 kts 158°
2026-04-20 21:49 61.17945 -149.99841 112 ft 13 kts 88°
2026-04-20 21:50 61.17971 -149.99651 106 ft 15 kts 62°
2026-04-20 21:50 61.17995 -149.99441 101 ft 16 kts 118°
2026-04-20 21:50 61.17902 -149.99338 102 ft 15 kts 158°
2026-04-20 21:50 61.17806 -149.99259 104 ft 14 kts 158°
2026-04-20 21:51 61.17723 -149.99151 103 ft 14 kts 144°
2026-04-20 21:51 61.17671 -149.99000 102 ft 13 kts 91°
2026-04-20 21:51 61.17685 -149.98816 103 ft 13 kts 102°
2026-04-20 21:51 61.17621 -149.98699 103 ft 13 kts 157°
2026-04-20 21:52 61.17540 -149.98639 105 ft 12 kts 160°
2026-04-20 21:52 61.17462 -149.98579 107 ft 12 kts 156°
2026-04-20 21:52 61.17430 -149.98440 110 ft 10 kts 86°
2026-04-20 21:52 61.17432 -149.98406 110 ft 0 kts 83°
2026-04-20 21:53 61.17432 -149.98399 110 ft 0 kts 83°